Content
SEND FEEDBACK

Daily
Averages
Monthly
Summary
Madagascar

AMPITILOVA, MADAGASCAR


Home > Africa > Madagascar
Elevation: 59 feet     Latitude: 15 40S     Longitude: 046 21E

WEATHER
 
SELECT A DAY
Number of Records: 108,894;   Date Range: 9/17/97 - 8/26/14
 
SHARE

PRINT THIS DATA

[ ← Previous Day ]
WEATHER ALMANAC - JANUARY 31, 2013
[ Next Day → ]
[ °C ]   °F
Weather ElementAverageHighLow
Temperature81.5 °F87.8 °F (12:00 pm)75.2 °F (1:00 am)
Dewpoint77 °F80.6 °F (4:00 pm)71.6 °F (1:00 am)
Humidity86.1 %94 % (3:00 am)75 % (12:00 pm)
Barometer29.68 in29.74 in (10:00 pm)29.65 in (3:00 am)
Wind Speed13 mph19.6 mph (4:00 pm)
Weather ElementAverage
Visibility7.4 mi
Wind DirectionSW (230.4 °)

Weather ElementTotal
Precipitation---
Cooling Degree Days16.5 (Base 65)
Growing Degree Days31.5 (Base 50)
Averaged from 27 records on January 31, 2013
WEATHER CONDITIONS BREAKOUT
WIND DIRECTION BREAKOUT
WEATHER BY HOUR - JANUARY 31, 2013
[ °C ]   °F
Local TimeTemperatureDewpointHumidityBarometerVisibilityWind DirectionWind SpeedGust SpeedPrecipitationEventsConditions
1:00 AM75.2 °F71.6 °F89 %29.71 in3.7 miNE (40°)11.5 mphRain-ThunderstormLight Thunderstorms and Rain
2:00 AM75.2 °F71.6 °F89 %29.71 in3.7 miNE (40°)11.5 mphRain-ThunderstormLight Thunderstorms and Rain
3:00 AM76.0 °F73.0 °F88 %29.67 in6.0 miENE (60°)6.9 mphRain-ThunderstormThunderstorms and Rain
3:00 AM75.2 °F73.4 °F94 %29.65 in6.2 miENE (60°)6.9 mphRain-ThunderstormLight Thunderstorms and Rain
4:00 AM75.2 °F73.4 °F94 %29.65 in6.2 miENE (60°)6.9 mphRain-ThunderstormLight Thunderstorms and Rain
5:00 AM75.2 °F73.4 °F94 %29.65 in6.2 miENE (60°)6.9 mphRain-ThunderstormLight Thunderstorms and Rain
6:00 AM77.0 °F75.2 °F94 %29.65 in6.2 miWest (280°)2.3 mphScattered Clouds
7:00 AM78.8 °F75.2 °F89 %29.68 in6.2 miWNW (300°)4.6 mphScattered Clouds
8:00 AM82.4 °F78.8 °F89 %29.68 in6.2 miWNW (300°)6.9 mphScattered Clouds
9:00 AM84.0 °F79.0 °F81 %29.70 in25.0 miWest (280°)9.2 mphPartly Cloudy
9:00 AM84.2 °F78.8 °F84 %29.68 in6.2 miWest (280°)9.2 mphScattered Clouds
10:00 AM84.2 °F78.8 °F84 %29.71 in6.2 miWest (280°)11.5 mphMostly Cloudy
11:00 AM86.0 °F78.8 °F79 %29.71 in6.2 miNW (320°)16.1 mphScattered Clouds
12:00 PM87.8 °F78.8 °F75 %29.68 in6.2 miNW (320°)16.1 mphScattered Clouds
1:00 PM87.8 °F78.8 °F75 %29.65 in6.2 miWest (280°)13.8 mphScattered Clouds
2:00 PM87.8 °F78.8 °F75 %29.65 in6.2 miWest (280°)13.8 mphScattered Clouds
3:00 PM85.0 °F79.0 °F77 %29.67 in12.0 miWNW (300°)18.4 mphPartly Cloudy
3:00 PM86.0 °F78.8 °F79 %29.65 in6.2 miWNW (300°)18.4 mphMostly Cloudy
4:00 PM86.0 °F80.6 °F84 %29.65 in6.2 miWNW (300°)19.6 mphMostly Cloudy
5:00 PM84.2 °F78.8 °F84 %29.65 in6.2 miWNW (300°)18.4 mphMostly Cloudy
6:00 PM82.4 °F78.8 °F89 %29.65 in6.2 miWNW (300°)18.4 mphMostly Cloudy
7:00 PM82.4 °F78.8 °F89 %29.65 in6.2 miWNW (300°)19.6 mphMostly Cloudy
8:00 PM82.4 °F78.8 °F89 %29.68 in6.2 miWNW (300°)19.6 mphMostly Cloudy
9:00 PM80.0 °F77.0 °F88 %29.73 in19.0 miSW (220°)16.1 mphPartly Cloudy
9:00 PM80.6 °F77.0 °F89 %29.71 in6.2 miSW (220°)16.1 mphMostly Cloudy
10:00 PM80.6 °F77.0 °F89 %29.74 in6.2 miSW (220°)16.1 mphRainLight Rain
11:00 PM78.8 °F77.0 °F94 %29.74 in6.2 miSW (220°)16.1 mphRainLight Rain
Hourly data recorded from FMNM, located miles away from Ampitilova, Madagascar







STORIES FROM OUR PARTNERS